Regional Weather Roundup
Issued by NWS Little Rock, AR

Home | Current Version | Previous Version | Text Only | Print | Product List | Glossary Off
Versions: 1 2 3 4 5 6 7 8 9 10 11 12 13 14 15 16 17 18 19 20 21 22 23 24 25 26 27 28 29 30 31 32 33 34 35 36 37 38 39 40 41 42 43 44 45 46 47 48 49 50

837
ASUS44 KLZK 271505
RWRLZK

WEATHER ROUNDUP FOR ARKANSAS
NATIONAL WEATHER SERVICE LITTLE ROCK AR
1000 AM CDT TUE SEP 27 2016

NOTE: "FAIR" INDICATES FEW OR NO CLOUDS BELOW 12,000 FEET WITH NO
SIGNIFICANT WEATHER AND/OR OBSTRUCTIONS TO VISIBILITY.

ARZ001-003-010-029-271600-
NORTHWEST ARKANSAS

CITY           SKY/WX    TMP DP  RH WIND       PRES   REMARKS
FAYETTEVILLE   SUNNY     59  51  75 CALM      30.15F
FORT SMITH     SUNNY     65  50  58 CALM      30.14S
HARRISON       SUNNY     66  46  48 NW7       30.13S
BENTONVILLE    SUNNY     64  46  52 CALM      30.15S
ROGERS         SUNNY     64  48  56 W5        30.15S
SILOAM SPGS    SUNNY     63  45  51 CALM      30.16S
HIGHFILL       SUNNY     65  54  67 VRB3      30.14F
SPRINGDALE     SUNNY     61  50  67 S5        30.16F
$$

ARZ004-005-016-271600-
NORTH CENTRAL ARKANSAS

CITY           SKY/WX    TMP DP  RH WIND       PRES   REMARKS
BATESVILLE     SUNNY     63  52  67 NW3       30.11S
FLIPPIN        SUNNY     61  48  63 CALM      30.10S
MTN HOME       SUNNY     63  55  75 CALM      30.11S
$$

ARZ040-041-271600-
WEST CENTRAL ARKANSAS

CITY           SKY/WX    TMP DP  RH WIND       PRES   REMARKS
MENA           SUNNY     68  57  68 CALM      30.14R
MOUNT IDA      SUNNY     65  55  70 CALM      30.10S
$$

ARZ009-017-025-026-028-271600-
NORTHEAST ARKANSAS

CITY           SKY/WX    TMP DP  RH WIND       PRES   REMARKS
CORNING          N/A     64  54  68 W3        30.09S
JONESBORO      SUNNY     70  46  42 N6        30.09R
NEWPORT        SUNNY     64  51  62 N6        30.10S
WALNUT RIDGE   SUNNY     63  50  63 NW3       30.09S
BLYTHEVILLE    SUNNY     70  53  54 VRB3      30.09R
$$

ARZ022-023-033-042-044-271600-
CENTRAL ARKANSAS

CITY           SKY/WX    TMP DP  RH WIND       PRES   REMARKS
LITTLE ROCK    MOSUNNY   70  49  47 NW3       30.10F
N LITTLE ROCK    N/A     66  52  60 CALM      30.09S
JACKSONVILLE   SUNNY     66  53  61 NW7       30.10S
SEARCY         SUNNY     67  51  56 CALM      30.11S
HOT SPRINGS    SUNNY     69  49  48 CALM      30.11S
RUSSELLVILLE   SUNNY     63  53  70 VRB3      30.12S
$$

ARZ036-271600-
EAST ARKANSAS

CITY           SKY/WX    TMP DP  RH WIND       PRES   REMARKS
WEST MEMPHIS   SUNNY     71  48  43 NE5       30.07R
$$

ARZ050-053-066-070-073-271600-
SOUTHWEST ARKANSAS

CITY           SKY/WX    TMP DP  RH WIND       PRES   REMARKS
ARKADELPHIA    FAIR      69  53  56 NE3       30.11S
TEXARKANA      PTSUNNY   69  54  58 N6        30.11R
EL DORADO      CLOUDY    70  58  65 NE6       30.09R
DE QUEEN       SUNNY     71  56  58 VRB3      30.10R
$$

ARZ056-057-069-271600-
SOUTHEAST ARKANSAS

CITY           SKY/WX    TMP DP  RH WIND       PRES   REMARKS
PINE BLUFF     SUNNY     67  53  61 N9        30.10R
STUTTGART      SUNNY     66  54  63 N6        30.10S
MONTICELLO     PTSUNNY   70  57  63 NE7       30.08S

$$






USA.gov is the U.S. government's official web portal to all federal, state and local government web resources and services.